Tracking 30995 objects as of 5-Jul-2025
HD Live streaming from Space Station
objects crossing your sky now

COSMOS 839 DEB

Track COSMOS 839 DEB now!
10-day predictions


NORAD ID: 10464
Int'l Code: 1976-067AH
Perigee: 922.7 km
Apogee: 2,047.8 km
Inclination: 65.8 °
Period: 115.5 minutes
Semi major axis: 7856 km
RCS: 0.0225 m2 (small)
Launch date: July 8, 1976
Source: Commonwealth of Independent States (former USSR) (CIS)
Launch site: PLESETSK MISSILE AND SPACE COMPLEX (PKMTR)

Note: This is SATELLITE DEBRIS
Your satellite tracking list
Your tracking list is empty




NASA's NSSDC Master Catalog

Two Line Element Set (TLE):
1 10464U 76067AH  25186.40381881  .00000137  00000-0  52816-3 0  9992
2 10464  65.8294 171.2298 0716021 356.8488 152.7708 12.46747310223967
Source of the keplerian elements: AFSPC